Passo Tonale, Italy 16 day weather forecast

Slopes altitude range 1120 m - 3015m

Number of lifts: 30 Pistes: 100km

In some cases the lift and piste totals shown are for the ski domain (e.g. Three Valleys) rather than individual resort (e.g. Courchevel)

Overview

The 16 day weather forecast is fully updated 4 times every day.

    • Sat 18 AUG 2018
    • Sat 18
    • 9C 15C
    • Sun 19 AUG 2018
    • Sun 19
    • 9C 16C
    • Mon 20 AUG 2018
    • Mon 20
    • 10C 15C
    • Tue 21 AUG 2018
    • Tue 21
    • 10C 14C
    • Wed 22 AUG 2018
    • Wed 22
    • 9C 14C
    • Thu 23 AUG 2018
    • Thu 23
    • 10C 13C
    • Fri 24 AUG 2018
    • Fri 24
    • 9C 14C
    • Sat 25 AUG 2018
    • Sat 25
    • 8C 11C
    • Sun 26 AUG 2018
    • Sun 26
    • 2C 3C
    • Mon 27 AUG 2018
    • Mon 27
    • 1C 9C
    • Tue 28 AUG 2018
    • Tue 28
    • 9C 18C
    • Wed 29 AUG 2018
    • Wed 29
    • 10C 18C
    • Thu 30 AUG 2018
    • Thu 30
    • 11C 19C
    • Fri 31 AUG 2018
    • Fri 31
    • 10C 15C
    • Sat 01 SEP 2018
    • Sat 01
    • 9C 16C
    • Sun 02 SEP 2018
    • Sun 02
    • 8C 11C

Date:

Time Type 0°C level Temp Chill Snow Cloud Speed Gust Dir Press
12:00 3883m 15°C 15_5 0cm 83% 5mph 5mph 1019mB
15:00 3953m 14°C 14_4 0cm 89% 4mph 5mph 1019mB
18:00 3955m 14°C 14_2 0cm 94% 2mph 2mph 1020mB
21:00 4044m 8°C 8_2 0cm 100% 2mph 3mph 1022mB
0:00 4002m 7°C 7_1 0cm 99% 1mph 1mph 1022mB
3:00 4030m 5°C 5_1 0cm 79% 1mph 1mph 1022mB
6:00 3994m 5°C 5_1 0cm 86% 1mph 1mph 1022mB
9:00 3998m 9°C 9_2 0cm 97% 2mph 2mph 1022mB
12:00 4037m 16°C 16_4 0cm 71% 4mph 3mph 1020mB
15:00 4149m 15°C 15_3 0cm 76% 3mph 3mph 1020mB
18:00 4106m 15°C 15_0 0cm 88% 0mph 1mph 1020mB
21:00 4099m 8°C 8_3 0cm 96% 3mph 4mph 1022mB
0:00 4066m 7°C 7_1 0cm 69% 1mph 2mph 1022mB
3:00 4068m 6°C 6_2 0cm 25% 2mph 3mph 1021mB
6:00 4082m 6°C 6_3 0cm 26% 3mph 3mph 1021mB
9:00 4098m 10°C 10_3 0cm 16% 3mph 3mph 1020mB
12:00 4060m 15°C 15_2 0cm 54% 2mph 2mph 1019mB
15:00 4187m 15°C 15_1 0cm 95% 1mph 2mph 1018mB
18:00 4178m 15°C 15_2 0cm 96% 2mph 3mph 1019mB
21:00 4204m 9°C 9_4 0cm 98% 4mph 5mph 1021mB
0:00 4186m 8°C 8_3 0cm 84% 3mph 4mph 1021mB
3:00 4190m 7°C 7_1 0cm 29% 1mph 2mph 1021mB
6:00 4152m 6°C 6_0 0cm 27% 0mph 1mph 1021mB
9:00 4135m 10°C 10_3 0cm 32% 3mph 3mph 1020mB
12:00 4133m 14°C 14_4 0cm 56% 4mph 4mph 1019mB
15:00 4238m 14°C 14_4 0cm 53% 4mph 4mph 1019mB
18:00 4233m 14°C 14_3 0cm 65% 3mph 4mph 1019mB
21:00 4248m 8°C 8_3 0cm 70% 3mph 4mph 1021mB
0:00 4199m 8°C 8_3 0cm 55% 3mph 4mph 1022mB
3:00 4190m 7°C 7_3 0cm 31% 3mph 4mph 1021mB
6:00 4182m 7°C 7_3 0cm 29% 3mph 4mph 1021mB
9:00 4165m 9°C 9_4 0cm 29% 4mph 4mph 1020mB
12:00 4230m 14°C 14_5 0cm 52% 5mph 6mph 1018mB
15:00 4253m 14°C 14_5 0cm 84% 5mph 5mph 1018mB
18:00 4184m 14°C 14_2 0cm 92% 2mph 2mph 1019mB
21:00 4209m 8°C 8_1 0cm 99% 1mph 1mph 1020mB
0:00 4170m 8°C 8_1 0cm 98% 1mph 2mph 1020mB
3:00 4133m 8°C 8_2 0cm 90% 2mph 2mph 1019mB
6:00 4071m 7°C 7_2 0cm 84% 2mph 2mph 1018mB
9:00 4086m 10°C 10_3 0cm 86% 3mph 2mph 1017mB
12:00 4046m 13°C 13_5 0cm 91% 5mph 5mph 1015mB
15:00 4035m 12°C 12_2 0cm 100% 2mph 3mph 1014mB
18:00 3948m 12°C 12_4 0cm 100% 4mph 5mph 1015mB
21:00 3984m 8°C 8_2 0cm 100% 2mph 3mph 1016mB
0:00 4005m 7°C 7_3 0cm 90% 3mph 3mph 1015mB
3:00 3948m 6°C 6_3 0cm 86% 3mph 4mph 1014mB
6:00 3913m 6°C 6_3 0cm 92% 3mph 4mph 1014mB
9:00 3925m 9°C 9_3 0cm 100% 3mph 4mph 1014mB
12:00 3881m 14°C 14_2 0cm 100% 2mph 2mph 1013mB
15:00 3897m 14°C 14_2 0cm 95% 2mph 3mph 1012mB
18:00 3843m 14°C 14_2 0cm 98% 2mph 3mph 1014mB
21:00 3815m 8°C 8_2 0cm 98% 2mph 2mph 1015mB
0:00 3831m 6°C 6_2 0cm 95% 2mph 3mph 1015mB
3:00 3672m 6°C 6_1 0cm 99% 1mph 2mph 1014mB
6:00 3539m 5°C 5_1 0cm 97% 1mph 2mph 1014mB
9:00 3554m 8°C 8_4 0cm 93% 4mph 5mph 1013mB
12:00 3612m 11°C 11_4 0cm 91% 4mph 5mph 1012mB
15:00 3688m 11°C 11_4 0cm 79% 4mph 5mph 1011mB
18:00 3670m 11°C 11_3 0cm 81% 3mph 4mph 1012mB
21:00 3522m 4°C 4_4 0cm 99% 4mph 5mph 1015mB
0:00 3414m 3°C 3_4 0cm 100% 4mph 5mph 1015mB
3:00 3331m 2°C 2_4 0cm 100% 4mph 5mph 1015mB
6:00 3201m 2°C 2_5 0cm 100% 5mph 6mph 1015mB
9:00 2919m 2°C 2_5 0cm 100% 5mph 6mph 1015mB
12:00 2957m 3°C 3_6 0cm 100% 6mph 7mph 1015mB
15:00 3094m 4°C 4_8 0cm 98% 8mph 9mph 1015mB
18:00 3116m 4°C 4_7 0cm 97% 7mph 8mph 1016mB
21:00 2994m 2°C 2_5 0cm 95% 5mph 6mph 1018mB
0:00 2987m 2°C 2_5 0cm 95% 5mph 5mph 1019mB
3:00 2962m 0°C 0_3 0cm 89% 3mph 4mph 1019mB
6:00 3044m -1°C -1_2 0cm 84% 2mph 3mph 1019mB
9:00 3074m 1°C 1_6 0cm 25% 6mph 6mph 1019mB
12:00 3360m 9°C 9_7 0cm 12% 7mph 6mph 1018mB
15:00 3487m 10°C 10_9 0cm 0% 9mph 8mph 1018mB
18:00 3625m 10°C 10_5 0cm 0% 5mph 6mph 1020mB
21:00 2854m 0°C 0_1 0cm 21% 1mph 3mph 1022mB
0:00 2570m 0°C 0_2 0cm 41% 2mph 3mph 1022mB
3:00 2577m 0°C 0_2 0cm 0% 2mph 3mph 1022mB
6:00 4078m 0°C 0_2 0cm 0% 2mph 3mph 1022mB
Afternoon 0mm 0 4021m 18°C 18_2 0cm 13% 2mph 4mph 1020mB
Morning 0mm 0 4353m 6°C 6_6 0cm 0% 6mph 6mph 1023mB
Afternoon 0.0260417mm 0.1875 4332m 18°C 18_3 0cm 53% 3mph 4mph 1021mB
Morning 0.322917mm 3.875 4353m 8°C 8_5 0cm 86% 5mph 5mph 1022mB
Afternoon 0.572917mm 6.875 4282m 19°C 19_3 0cm 86% 3mph 4mph 1020mB
Morning 0.46875mm 5.625 4064m 6°C 6_4 0cm 90% 4mph 4mph 1021mB
Afternoon 1.48438mm 16.25 3995m 15°C 15_3 0cm 74% 3mph 4mph 1018mB
Morning 0.119792mm 0.75 4016m 8°C 8_1 0cm 98% 1mph 2mph 1018mB
Afternoon 1.88021mm 15.25 3895m 16°C 16_6 0cm 68% 6mph 7mph 1013mB
Morning 0.838542mm 4.0625 3764m 8°C 8_9 0cm 100% 9mph 12mph 1009mB
Afternoon 2.48958mm 2.6875 3866m 11°C 11_5 0cm 100% 5mph 9mph 1004mB
Morning 6.24479mm 0.25 3117m 3°C 3_10 0cm 100% 10mph 11mph 1006mB

16 day outlook at a glance

Forecast issued: 18/08/2018 18:53:48

Chat

Your comments and questions. In a resort? Let us know what it's like!


Characters left 250

For terms and conditions see Readers Comments on the Cookie and privacy policy page.